When you browse on this site, cookies collect data to enhance your experience and personalize the content and advertising you see.
Visit our Privacy Policy to learn more. By continuing to use the site, you agree to this use of cookies and data.
  • In Portugal
  • List of Countries
  • For 7 days
  • Water Temperature
  • Satellite Maps
  • Weather Map
  • Weather Widgets
  • user-avatar
    Login

    Hourly Weather Livingstone

    Today, 22 March, Friday

    Time Temperature Precipitation Wind Pressure Humidity
    00:00 +25°C° 0 mm 1 mps 681 mmHg 39%
    01:00 +24°C° 0 mm 1 mps 681 mmHg 40%
    02:00 +23°C° 0 mm 1 mps 681 mmHg 42%
    03:00 +23°C° 0 mm 1 mps 681 mmHg 44%
    04:00 +22°C° 0 mm 1 mps 681 mmHg 46%
    05:00 +22°C° 0 mm 1 mps 681 mmHg 48%
    06:00 +23°C° 0 mm 2 mps 682 mmHg 47%
    07:00 +25°C° 0 mm 2 mps 682 mmHg 46%
    08:00 +27°C° 0 mm 3 mps 683 mmHg 44%
    09:00 +30°C° 0 mm 3 mps 684 mmHg 38%
    10:00 +34°C° 0 mm 4 mps 684 mmHg 31%
    11:00 +36°C° 0 mm 4 mps 684 mmHg 25%
    12:00 +37°C° 0 mm 4 mps 684 mmHg 23%
    13:00 +38°C° 0 mm 4 mps 683 mmHg 21%
    14:00 +40°C° 0 mm 4 mps 683 mmHg 20%
    15:00 +40°C° 0 mm 4 mps 682 mmHg 21%
    16:00 +38°C° 0 mm 4 mps 682 mmHg 22%
    17:00 +38°C° 0 mm 4 mps 682 mmHg 22%
    18:00 +35°C° 0 mm 3 mps 682 mmHg 27%
    19:00 +31°C° 0 mm 2 mps 681 mmHg 32%
    20:00 +28°C° 0 mm 1 mps 681 mmHg 37%
    21:00 +27°C° 0 mm 1 mps 682 mmHg 39%
    22:00 +26°C° 0 mm 1 mps 682 mmHg 42%
    23:00 +25°C° 0 mm 1 mps 683 mmHg 45%

    Tomorrow, 23 March, Saturday

    Time Temperature Precipitation Wind Pressure Humidity
    00:00 +25°C° 0 mm 2 mps 683 mmHg 47%
    01:00 +24°C° 0 mm 2 mps 683 mmHg 49%
    02:00 +24°C° 0 mm 3 mps 683 mmHg 51%
    03:00 +22°C° 0 mm 3 mps 683 mmHg 56%
    04:00 +21°C° 0 mm 3 mps 683 mmHg 60%
    05:00 +21°C° 0 mm 3 mps 683 mmHg 65%
    06:00 +22°C° 0 mm 3 mps 683 mmHg 64%
    07:00 +22°C° 0 mm 3 mps 684 mmHg 64%
    08:00 +23°C° 0 mm 4 mps 684 mmHg 63%
    09:00 +27°C° 0 mm 4 mps 685 mmHg 56%
    10:00 +29°C° 0 mm 4 mps 685 mmHg 48%
    11:00 +33°C° 0 mm 4 mps 686 mmHg 40%
    12:00 +34°C° 0 mm 4 mps 685 mmHg 35%
    13:00 +36°C° 0 mm 4 mps 684 mmHg 30%
    14:00 +37°C° 0 mm 4 mps 684 mmHg 24%
    15:00 +36°C° 0 mm 4 mps 683 mmHg 26%
    16:00 +36°C° 0 mm 4 mps 682 mmHg 28%
    17:00 +35°C° 0 mm 4 mps 682 mmHg 30%
    18:00 +31°C° 0 mm 3 mps 682 mmHg 37%
    19:00 +29°C° 0 mm 3 mps 682 mmHg 44%
    20:00 +26°C° 0 mm 2 mps 682 mmHg 51%
    21:00 +25°C° 0 mm 1 mps 682 mmHg 54%
    22:00 +25°C° 0 mm 1 mps 682 mmHg 57%
    23:00 +24°C° 0 mm 1 mps 683 mmHg 59%

    Day after tomorrow, 24 March, Sunday

    Time Temperature Precipitation Wind Pressure Humidity
    00:00 +23°C° 0 mm 1 mps 683 mmHg 62%
    01:00 +23°C° 0 mm 1 mps 682 mmHg 64%
    02:00 +21°C° 0 mm 2 mps 682 mmHg 67%
    03:00 +21°C° 0 mm 2 mps 682 mmHg 69%
    04:00 +20°C° 0 mm 2 mps 682 mmHg 72%
    05:00 +19°C° 0 mm 2 mps 683 mmHg 74%
    06:00 +21°C° 0 mm 2 mps 683 mmHg 71%
    07:00 +22°C° 0 mm 3 mps 684 mmHg 68%
    08:00 +23°C° 0 mm 4 mps 685 mmHg 65%
    09:00 +27°C° 0 mm 3 mps 685 mmHg 57%
    10:00 +29°C° 0 mm 3 mps 685 mmHg 50%
    11:00 +33°C° 0 mm 3 mps 685 mmHg 42%
    12:00 +34°C° 0 mm 3 mps 685 mmHg 37%
    13:00 +35°C° 0 mm 3 mps 684 mmHg 32%
    14:00 +37°C° 0 mm 3 mps 683 mmHg 27%
    15:00 +36°C° 0 mm 3 mps 682 mmHg 28%
    16:00 +35°C° 0 mm 3 mps 682 mmHg 29%
    17:00 +35°C° 0 mm 3 mps 681 mmHg 31%
    18:00 +31°C° 0 mm 3 mps 681 mmHg 38%
    19:00 +29°C° 0 mm 3 mps 681 mmHg 45%
    20:00 +26°C° 0 mm 2 mps 681 mmHg 52%
    21:00 +25°C° 0 mm 2 mps 681 mmHg 56%
    22:00 +25°C° 0 mm 2 mps 682 mmHg 60%
    23:00 +24°C° 0 mm 2 mps 682 mmHg 64%

    25 March, Monday

    Time Temperature Precipitation Wind Pressure Humidity
    00:00 +23°C° 0 mm 1 mps 682 mmHg 64%
    01:00 +23°C° 0 mm 1 mps 681 mmHg 64%
    02:00 +22°C° 0 mm 1 mps 681 mmHg 65%
    03:00 +22°C° 0 mm 1 mps 681 mmHg 67%
    04:00 +21°C° 0 mm 1 mps 681 mmHg 69%
    05:00 +20°C° 0 mm 1 mps 681 mmHg 71%
    06:00 +22°C° 0 mm 1 mps 682 mmHg 67%
    07:00 +23°C° 0 mm 1 mps 683 mmHg 63%
    08:00 +25°C° 0 mm 1 mps 683 mmHg 60%
    09:00 +28°C° 0 mm 1 mps 684 mmHg 51%
    10:00 +31°C° 0 mm 1 mps 684 mmHg 42%
    11:00 +35°C° 0 mm 2 mps 685 mmHg 34%
    12:00 +36°C° 0 mm 2 mps 684 mmHg 30%
    13:00 +38°C° 0 mm 2 mps 683 mmHg 26%
    14:00 +39°C° 0 mm 2 mps 682 mmHg 22%
    15:00 +38°C° 0 mm 2 mps 681 mmHg 22%
    16:00 +37°C° 0 mm 2 mps 681 mmHg 23%
    17:00 +37°C° 0 mm 3 mps 680 mmHg 23%
    18:00 +34°C° 0 mm 3 mps 680 mmHg 29%
    19:00 +30°C° 0 mm 3 mps 680 mmHg 36%
    20:00 +28°C° 0 mm 2 mps 680 mmHg 42%
    21:00 +27°C° 0 mm 2 mps 681 mmHg 45%
    22:00 +26°C° 0 mm 2 mps 681 mmHg 48%
    23:00 +25°C° 0 mm 2 mps 681 mmHg 50%

    26 March, Tuesday

    Time Temperature Precipitation Wind Pressure Humidity
    00:00 +24°C° 0 mm 1 mps 681 mmHg 51%
    01:00 +24°C° 0 mm 1 mps 681 mmHg 52%
    02:00 +23°C° 0 mm 1 mps 680 mmHg 52%
    03:00 +23°C° 0 mm 1 mps 680 mmHg 53%
    04:00 +22°C° 0 mm 1 mps 680 mmHg 55%
    05:00 +22°C° 0 mm 1 mps 680 mmHg 56%
    06:00 +23°C° 0 mm 1 mps 681 mmHg 52%
    07:00 +25°C° 0 mm 1 mps 682 mmHg 49%
    08:00 +26°C° 0 mm 1 mps 683 mmHg 45%
    09:00 +30°C° 0 mm 1 mps 684 mmHg 38%
    10:00 +33°C° 0 mm 1 mps 684 mmHg 32%
    11:00 +37°C° 0 mm 1 mps 685 mmHg 25%
    12:00 +39°C° 0 mm 2 mps 684 mmHg 22%
    13:00 +39°C° 0 mm 2 mps 683 mmHg 19%
    14:00 +40°C° 0 mm 3 mps 682 mmHg 16%
    15:00 +39°C° 0 mm 3 mps 682 mmHg 17%
    16:00 +39°C° 0 mm 3 mps 682 mmHg 18%
    17:00 +38°C° 0 mm 4 mps 681 mmHg 18%
    18:00 +35°C° 0 mm 3 mps 681 mmHg 24%
    19:00 +31°C° 0 mm 3 mps 682 mmHg 29%
    20:00 +29°C° 0 mm 2 mps 682 mmHg 35%
    21:00 +28°C° 0 mm 2 mps 682 mmHg 36%
    22:00 +27°C° 0 mm 2 mps 682 mmHg 37%
    23:00 +27°C° 0 mm 2 mps 683 mmHg 38%

    27 March, Wednesday

    Time Temperature Precipitation Wind Pressure Humidity
    00:00 +26°C° 0 mm 2 mps 683 mmHg 39%
    01:00 +26°C° 0 mm 2 mps 683 mmHg 40%
    02:00 +25°C° 0 mm 2 mps 683 mmHg 42%
    03:00 +25°C° 0 mm 2 mps 683 mmHg 45%
    04:00 +24°C° 0 mm 2 mps 683 mmHg 49%
    05:00 +23°C° 0 mm 1 mps 683 mmHg 52%
    06:00 +25°C° 0 mm 2 mps 684 mmHg 51%
    07:00 +26°C° 0 mm 2 mps 684 mmHg 49%
    08:00 +27°C° 0 mm 2 mps 685 mmHg 47%
    09:00 +30°C° 0 mm 2 mps 686 mmHg 41%
    10:00 +34°C° 0 mm 2 mps 686 mmHg 35%
    11:00 +36°C° 0 mm 3 mps 687 mmHg 28%
    12:00 +37°C° 0 mm 3 mps 686 mmHg 27%
    13:00 +38°C° 0 mm 3 mps 685 mmHg 25%
    14:00 +39°C° 0 mm 3 mps 684 mmHg 23%
    15:00 +38°C° 0 mm 3 mps 684 mmHg 25%
    16:00 +37°C° 0 mm 3 mps 684 mmHg 26%
    17:00 +36°C° 0 mm 3 mps 683 mmHg 28%
    18:00 +34°C° 0 mm 3 mps 684 mmHg 34%
    19:00 +31°C° 0 mm 3 mps 684 mmHg 39%
    20:00 +29°C° 0 mm 3 mps 684 mmHg 44%
    21:00 +28°C° 0 mm 2 mps 684 mmHg 47%
    22:00 +27°C° 0 mm 2 mps 684 mmHg 50%
    23:00 +26°C° 0 mm 2 mps 685 mmHg 53%
    Show more